Forside
METAR-TAF:

METAR-TAF

Lufthavne :

Kirksville Regional Airport

Kirksville, Missouri, USA

Breddekreds: 40-05-50N, længdekreds: 092-32-36W, højde: 294 m

Aktuelle vejr

Denne rapport blev lavet for 27 minutter siden, kl. 12:55 UTC
Vind 14 kt fra sydsydøst
Temperatur -2°C
Fugtighed 86%
Tryk 1014 hPa
Sigt: 16.1 km
Overskyet i en højde af 2000 ft

METAR: KIRK 221255Z AUTO 15014KT 10SM OVC020 M02/M04 A2993 RMK AO2 SLP151 T10171039

Tid: 07:22 (13:22 UTC)


TAF: fraværende

Vejrobservationer og prognoser fra mere end 4000 lufthavne (METAR og TAF).

De gule og røde prikker repræsenterer de meteorologiske stationer.

Flyt musen over at se navnet på stationen.

Så klik over at se vejr observationer og prognoser.

At skifte det kort: Klik på de grønne knapper med et sort kors for at zoome ind; på den grønne knap med en bindestreg for at zoome ud; eller på de grønne pile for tilstødende kort.


METAR-TAF: